Flag for United Kingdom Weather past 2 weeks in Cheltenham, England, United Kingdom

Now
46 °F

Cool.


Feels Like: 40 °F
Forecast: 38 / 54 °F
Wind: 12 mph from North

Location: Little Rissington

Current Time: Apr 25, 2015 at 11:27:09 PM

Latest Report: Apr 25, 2015 at 10:00 PM


Visibility: 6 mi

Pressure: 29.72 "Hg

Humidity: 98%

Dew point: 45 °F

Location of CheltenhamLocation

Historic Weather in Cheltenham — Graph

°F

Cheltenham temperature yesterday

Maximum temperature yesterday: 57 °F (at 5:00 PM)
Minimum temperature yesterday: 40 °F (at 6:00 AM)
Average temperature yesterday: 50 °F

Past Weeks' High & Low Weather Summary

 TemperatureHumidityPressure
High68 °F (Apr 15, 2:00 PM)100% (Apr 11, 3:00 AM)30.57 "Hg (Apr 11, 3:00 AM)
Low34 °F (Apr 20, 6:00 AM)38% (Apr 11, 3:00 PM)29.64 "Hg (Apr 25, 5:00 PM)
Average49 °F78%30.18 "Hg
* Reported Apr 10 10:00 PM — Apr 25 10:00 PM, Cheltenham, Weather by CustomWeather, © 2015

Note: Actual official high and low records may vary slightly from our data, if they occured in-between our weather recording intervals... More about our weather records

Advertising

Cheltenham weather history for previous 24 hours

 ConditionsComfort  
Time TempWeatherWind HumidityBarometerVisibility
10:00 PM
Sat, Apr 25
46 °FCool.12 mph98%29.72 "Hg6 mi
9:00 PM49 °FCool.7 mph99%29.70 "Hg3 mi
8:00 PM51 °FCool.9 mph94%29.67 "Hg6 mi
7:00 PM56 °FCool.10 mph66%29.65 "Hg19 mi
6:00 PM58 °FCool.13 mph61%29.64 "Hg22 mi
5:00 PM59 °FRefreshingly cool.17 mph58%29.64 "Hg19 mi
4:00 PM58 °FCool.15 mph61%29.64 "Hg19 mi
3:00 PM58 °FCool.18 mph61%29.65 "Hg19 mi
1:00 PM57 °FCool.20 mph63%29.66 "Hg19 mi
12:00 PM54 °FCool.18 mph71%29.67 "Hg22 mi
11:00 AM54 °FCool.17 mph79%29.67 "Hg18 mi
10:00 AM55 °FCool.14 mph86%29.66 "Hg14 mi
9:00 AM52 °FCool.15 mph95%29.66 "Hg8 mi
8:00 AM50 °FCool.12 mph100%29.66 "Hg7 mi
7:00 AM49 °FCool.8 mph100%29.66 "Hg5 mi
6:00 AM49 °FCool.10 mph100%29.65 "Hg1 mi
5:00 AM49 °FCool.10 mph100%29.66 "Hg3 mi
4:00 AM49 °FCool.13 mph100%29.67 "Hg4 mi
3:00 AM50 °FCool.12 mph100%29.68 "Hg2 mi
2:00 AM50 °FCool.12 mph100%29.70 "Hg2 mi
12:00 AM50 °FCool.15 mph100%29.73 "Hg3 mi
11:00 PM
Fri, Apr 24
51 °FCool.16 mph95%29.74 "Hg9 mi
Weather by CustomWeather, © 2015

See weather overviewHow to use our weather pages